Regional Weather Roundup
Issued by NWS

Home | Current Version | Previous Version | Text Only | Print | Product List | Glossary Off
Versions: 1 2 3 4 5 6 7 8 9 10 11 12 13 14 15 16 17 18 19 20 21 22 23 24 25 26 27 28 29 30 31 32 33 34 35 36 37 38 39 40 41 42 43 44 45 46 47 48 49 50

000
ASUS44 KMEG 220000
RWRTN
TENNESSEE HOURLY STATE WEATHER ROUNDUP
NATIONAL WEATHER SERVICE MEMPHIS TN
700 PM CDT THU AUG 21 2014

TNZ002-004-019-021-049-052-054-088>092-220100-
WEST TENNESSEE

CITY           SKY/WX    TMP DP  RH WIND       PRES   REMARKS
MEMPHIS INTL   PTCLDY    90  72  55 SW5G25    30.03S HX  97
NWS MEMPHIS      N/A     91 N/A N/A MISG        N/A
JACKSON        CLEAR     87  76  69 S5        30.03S HX  97
DYERSBURG      PTCLDY    88  68  51 CALM      30.01F HX  91
UNION CITY     CLEAR     84  75  74 S5        30.00S HX  92
PARIS          CLEAR     84  73  70 SW6       30.03F HX  91
SAVANNAH       CLEAR     88  75  66 SW5       30.06R HX  97
$$

TNZ008-025-027-028-033-062-065-066-220100-
NORTH MIDDLE TENNESSEE

CITY           SKY/WX    TMP DP  RH WIND       PRES   REMARKS
NASHVILLE      PTCLDY    88  71  57 SW3       30.05S HX  94
CLARKSVILLE    CLEAR     88  71  57 SW8       30.02F HX  94
COOKEVILLE     CLEAR     86  79  79 CALM      30.09S HX  99
CROSSVILLE     CLEAR     79  70  74 CALM      30.16S
$$

TNZ061-075-076-078-094-096-097-220100-
SOUTH MIDDLE TENNESSEE

CITY           SKY/WX    TMP DP  RH WIND       PRES   REMARKS
WINCHESTER     PTCLDY    88  73  62 CALM      30.09S HX  96
SHELBYVILLE    CLEAR     90  73  58 CALM      30.08S HX  98
$$

TNZ017-018-042-046-047-220100-
NORTHEAST TENNESSEE

CITY           SKY/WX    TMP DP  RH WIND       PRES   REMARKS
TRI CITIES     TSTM      81  71  71 CALM      30.14S
ELIZABETHTON   CLEAR     73  72  94 CALM      30.15S
$$

TNZ012-013-036-069-073-074-220100-
CENTRAL EAST TENNESSEE

CITY           SKY/WX    TMP DP  RH WIND       PRES   REMARKS
KNOXVILLE      MOCLDY    83  71  67 SW6       30.09S
OAK RIDGE      CLEAR     85  73  67 SE3       30.10S HX  91
GATLINBURG     CLEAR     84  72  65 S3        30.10S
$$

TNZ083-085-099-220100-
SOUTHEAST TENNESSEE

CITY           SKY/WX    TMP DP  RH WIND       PRES   REMARKS
CHATTANOOGA    PTCLDY    90  69  50 CALM      30.08S HX  94
$$

SKY/WX REPORTED AS FAIR MEANS FEW OR NO CLOUDS BELOW
12 THOUSAND FEET.



USA.gov is the U.S. government's official web portal to all federal, state and local government web resources and services.